Consulta los datos en tiempo real de la estación meteorológica de Cercs - La Baells
| Hora UTC | 09:10 |
|---|---|
| Temperatura | 11.8 ºC |
| Humedad | 86.0 % |
| Presión | 1011.2 hPa |
| Pluja | 0.0 mm |
| Velocidad viento | 0.1 km/h |
| Dirección viento | W |
| Temperatura (ºC) | Humedad (%) | Presión (hPa) | Velocidad viento (km/h) | Precipitación (mm) | ||||||||||||
|---|---|---|---|---|---|---|---|---|---|---|---|---|---|---|---|---|
| Hora UTC | Aire | Humedad | Presión | Vel. | Dir. | Vel. Max | Dir. | Intent. máx 5 min. | ||||||||
| 00:05 | 10.1 | 95.7 | 1012.2 | 0.1 | WNW | 0.1 | WNW | 0.0 | ||||||||
| 00:10 | 10.1 | 95.7 | 1012.2 | 0.1 | WNW | 0.1 | WNW | 0.0 | ||||||||
| 00:15 | 10.1 | 95.7 | 1011.2 | 0.1 | NNE | 0.1 | N | 0.0 | ||||||||
| 00:20 | 9.9 | 95.6 | 1011.2 | 0.1 | S | 0.1 | S | 0.0 | ||||||||
| 00:25 | 9.9 | 95.6 | 1011.2 | 0.1 | S | 0.1 | S | 0.0 | ||||||||
| 00:30 | 9.8 | 95.7 | 1011.2 | 0.1 | S | 0.1 | S | 0.0 | ||||||||
| 00:35 | 9.8 | 95.7 | 1011.2 | 0.1 | S | 0.1 | S | 0.0 | ||||||||
| 00:40 | 9.7 | 95.7 | 1011.2 | 0.1 | SSE | 0.1 | SSE | 0.0 | ||||||||
| 00:45 | 9.6 | 95.7 | 1011.2 | 0.1 | SSE | 0.1 | SSE | 0.0 | ||||||||
| 00:50 | 9.6 | 95.9 | 1011.2 | 0.1 | SSE | 0.1 | SSE | 0.0 | ||||||||
| 00:55 | 9.6 | 95.9 | 1011.2 | 0.1 | SSE | 0.1 | SSE | 0.0 | ||||||||
| 01:00 | 9.5 | 95.9 | 1011.2 | 0.1 | E | 0.1 | E | 0.0 | ||||||||
| 01:05 | 9.5 | 95.9 | 1011.2 | 0.1 | ENE | 0.1 | ENE | 0.0 | ||||||||
| 01:10 | 9.4 | 95.9 | 1011.2 | 0.1 | ENE | 0.1 | ENE | 0.0 | ||||||||
| 01:15 | 9.3 | 95.9 | 1011.2 | 0.1 | E | 0.1 | E | 0.0 | ||||||||
| 01:20 | 9.2 | 95.9 | 1011.2 | 0.1 | E | 0.1 | E | 0.0 | ||||||||
| 01:25 | 9.2 | 95.9 | 1011.2 | 0.1 | E | 0.1 | E | 0.0 | ||||||||
| 01:30 | 9.1 | 95.9 | 1011.2 | 0.1 | ESE | 0.1 | ESE | 0.0 | ||||||||
| 01:35 | 9.1 | 95.9 | 1011.2 | 0.1 | SE | 0.1 | SE | 0.0 | ||||||||
| 01:40 | 9.2 | 96.2 | 1011.2 | 0.1 | WSW | 0.1 | SE | 0.0 | ||||||||
| 01:45 | 9.3 | 96.3 | 1011.2 | 0.1 | WNW | 0.1 | SE | 0.0 | ||||||||
| 01:50 | 9.3 | 96.4 | 1011.2 | 0.1 | SSW | 0.1 | SE | 0.0 | ||||||||
| 01:55 | 9.3 | 96.5 | 1011.2 | 0.1 | S | 0.1 | S | 0.0 | ||||||||
| 01:55 | 9.3 | 96.5 | 1011.2 | 0.1 | S | 0.1 | S | 0.0 | ||||||||
| 01:55 | 9.3 | 96.5 | 1011.2 | 0.1 | S | 0.1 | S | 0.0 | ||||||||
| 02:15 | 9.2 | 96.6 | 1011.2 | 0.1 | NE | 0.1 | S | 0.0 | ||||||||
| 02:20 | 9.2 | 96.6 | 1011.2 | 0.0 | SW | 0.1 | S | 0.0 | ||||||||
| 02:25 | 9.2 | 96.6 | 1011.2 | 0.0 | SW | 0.1 | S | 0.0 | ||||||||
| 02:30 | 9.1 | 96.7 | 1011.2 | 0.1 | SSW | 0.1 | S | 0.0 | ||||||||
| 02:35 | 9.1 | 96.7 | 1011.2 | 0.1 | S | 0.1 | S | 0.0 | ||||||||
| 02:40 | 9.1 | 96.6 | 1011.2 | 0.1 | SSW | 0.1 | S | 0.0 | ||||||||
| 02:45 | 9.1 | 96.6 | 1011.2 | 0.1 | SSW | 0.1 | S | 0.0 | ||||||||
| 02:50 | 9.0 | 96.4 | 1011.2 | 0.1 | ESE | 0.1 | S | 0.0 | ||||||||
| 02:55 | 9.0 | 96.3 | 1011.2 | 0.1 | ENE | 0.1 | S | 0.0 | ||||||||
| 03:00 | 8.9 | 96.1 | 1011.2 | 0.1 | E | 0.1 | S | 0.0 | ||||||||
| 03:05 | 8.9 | 96.1 | 1011.2 | 0.1 | E | 0.1 | S | 0.0 | ||||||||
| 03:05 | 8.9 | 96.1 | 1011.2 | 0.1 | E | 0.1 | S | 0.0 | ||||||||
| 03:15 | 8.9 | 95.9 | 1011.2 | 0.1 | SE | 0.1 | S | 0.0 | ||||||||
| 03:20 | 8.8 | 95.8 | 1011.2 | 0.1 | SSE | 0.1 | SSE | 0.0 | ||||||||
| 03:25 | 8.7 | 95.8 | 1011.2 | 0.1 | S | 0.1 | S | 0.0 | ||||||||
| 03:30 | 8.7 | 95.9 | 1011.2 | 0.1 | S | 0.1 | S | 0.0 | ||||||||
| 03:35 | 8.7 | 96.0 | 1011.2 | 0.1 | SSE | 0.1 | SSE | 0.0 | ||||||||
| 03:40 | 8.7 | 96.0 | 1011.2 | 0.1 | SSE | 0.1 | SSE | 0.0 | ||||||||
| 03:45 | 8.5 | 95.6 | 1011.2 | 0.1 | S | 0.1 | SSE | 0.0 | ||||||||
| 03:50 | 8.3 | 95.7 | 1011.2 | 0.1 | SE | 0.1 | SSE | 0.0 | ||||||||
| 03:50 | 8.3 | 95.7 | 1011.2 | 0.1 | SE | 0.1 | SSE | 0.0 | ||||||||
| 04:00 | 8.2 | 96.1 | 1010.4 | 0.1 | S | 0.1 | SSE | 0.0 | ||||||||
| 04:05 | 8.2 | 96.2 | 1010.2 | 0.1 | S | 0.1 | SSE | 0.0 | ||||||||
| 04:10 | 8.1 | 96.4 | 1010.2 | 0.1 | SSE | 0.1 | SSE | 0.0 | ||||||||
| 04:15 | 8.1 | 96.4 | 1010.2 | 0.1 | NNE | 0.1 | N | 0.0 | ||||||||
| 04:20 | 8.0 | 96.5 | 1010.2 | 0.1 | SSE | 0.1 | N | 0.0 | ||||||||
| 04:25 | 8.0 | 96.5 | 1010.2 | 0.1 | SSE | 0.1 | N | 0.0 | ||||||||
| 04:30 | 8.0 | 96.7 | 1010.2 | 0.1 | SSE | 0.1 | N | 0.0 | ||||||||
| 04:35 | 8.0 | 96.7 | 1010.2 | 0.1 | SSE | 0.1 | N | 0.0 | ||||||||
| 04:40 | 8.0 | 96.8 | 1010.2 | 0.1 | SSE | 0.1 | N | 0.0 | ||||||||
| 04:45 | 8.0 | 96.8 | 1010.2 | 0.0 | SE | 0.1 | N | 0.0 | ||||||||
| 04:50 | 7.9 | 96.9 | 1010.2 | 0.0 | SSE | 0.1 | N | 0.0 | ||||||||
| 04:50 | 7.9 | 96.9 | 1010.2 | 0.0 | SSE | 0.1 | N | 0.0 | ||||||||
| 05:00 | 7.7 | 96.9 | 1010.2 | 0.0 | ESE | 0.1 | N | 0.0 | ||||||||
| 05:05 | 7.7 | 96.9 | 1010.2 | 0.0 | ESE | 0.1 | N | 0.0 | ||||||||
| 05:05 | 7.7 | 96.9 | 1010.2 | 0.0 | ESE | 0.1 | N | 0.0 | ||||||||
| 05:15 | 7.6 | 97.0 | 1010.2 | 0.0 | SE | 0.1 | N | 0.0 | ||||||||
| 05:20 | 7.6 | 97.1 | 1010.2 | 0.0 | ESE | 0.1 | N | 0.0 | ||||||||
| 05:25 | 7.6 | 97.1 | 1010.2 | 0.0 | ESE | 0.1 | N | 0.0 | ||||||||
| 05:30 | 7.6 | 97.1 | 1010.2 | 0.0 | E | 0.1 | N | 0.0 | ||||||||
| 05:35 | 7.5 | 97.1 | 1010.2 | 0.0 | E | 0.1 | N | 0.0 | ||||||||
| 05:40 | 7.7 | 97.1 | 1010.2 | 0.1 | E | 0.1 | N | 0.0 | ||||||||
| 05:45 | 7.7 | 97.1 | 1010.2 | 0.1 | E | 0.1 | N | 0.0 | ||||||||
| 05:50 | 7.7 | 97.0 | 1010.2 | 0.1 | NE | 0.1 | N | 0.0 | ||||||||
| 05:55 | 7.7 | 97.0 | 1010.2 | 0.1 | NE | 0.1 | N | 0.0 | ||||||||
| 05:55 | 7.7 | 97.0 | 1010.2 | 0.1 | NNE | 0.1 | N | 0.0 | ||||||||
| 06:00 | 7.8 | 96.9 | 1011.0 | 0.1 | NE | 0.1 | NE | 0.0 | ||||||||
| 06:10 | 7.9 | 96.8 | 1011.2 | 0.1 | SE | 0.1 | SE | 0.0 | ||||||||
| 06:15 | 7.9 | 96.8 | 1011.2 | 0.1 | SSE | 0.1 | SE | 0.0 | ||||||||
| 06:20 | 8.2 | 96.6 | 1011.2 | 0.0 | ENE | 0.1 | SE | 0.0 | ||||||||
| 06:25 | 8.3 | 96.6 | 1011.2 | 0.0 | NE | 0.1 | SE | 0.0 | ||||||||
| 06:30 | 8.5 | 96.1 | 1011.2 | 0.1 | SSE | 0.1 | SSE | 0.0 | ||||||||
| 06:35 | 8.6 | 96.0 | 1011.2 | 0.1 | S | 0.1 | S | 0.0 | ||||||||
| 06:40 | 9.2 | 95.5 | 1011.2 | 0.2 | SSW | 0.2 | SSW | 0.0 | ||||||||
| 06:45 | 9.3 | 95.3 | 1011.2 | 0.2 | SSW | 0.2 | SSW | 0.0 | ||||||||
| 06:50 | 9.8 | 92.9 | 1010.4 | 0.2 | S | 0.2 | SSW | 0.0 | ||||||||
| 06:55 | 9.9 | 92.2 | 1010.2 | 0.2 | S | 0.2 | S | 0.0 | ||||||||
| 07:00 | 9.9 | 89.9 | 1011.0 | 0.2 | S | 0.2 | S | 0.0 | ||||||||
| 07:05 | 9.9 | 89.3 | 1011.2 | 0.2 | S | 0.2 | S | 0.0 | ||||||||
| 07:10 | 10.2 | 87.4 | 1011.2 | 0.2 | SSW | 0.2 | SSW | 0.0 | ||||||||
| 07:15 | 10.3 | 86.9 | 1011.2 | 0.2 | SSW | 0.2 | SSW | 0.0 | ||||||||
| 07:20 | 10.7 | 84.8 | 1011.2 | 0.2 | SSW | 0.2 | SSW | 0.0 | ||||||||
| 07:25 | 10.9 | 83.7 | 1011.2 | 0.2 | S | 0.2 | SSW | 0.0 | ||||||||
| 07:30 | 11.5 | 81.7 | 1011.2 | 0.2 | SSW | 0.2 | SSW | 0.0 | ||||||||
| 07:35 | 11.6 | 81.2 | 1011.2 | 0.2 | SSW | 0.2 | SSW | 0.0 | ||||||||
| 07:40 | 11.9 | 80.9 | 1011.2 | 0.2 | SW | 0.2 | SSW | 0.0 | ||||||||
| 07:45 | 12.0 | 80.7 | 1011.2 | 0.2 | WSW | 0.2 | SSW | 0.0 | ||||||||
| 07:50 | 11.7 | 83.3 | 1011.2 | 0.2 | WSW | 0.2 | SSW | 0.0 | ||||||||
| 07:55 | 11.7 | 84.0 | 1011.2 | 0.2 | WSW | 0.2 | SSW | 0.0 | ||||||||
| 08:00 | 11.8 | 84.3 | 1011.2 | 0.2 | NW | 0.2 | SSW | 0.0 | ||||||||
| 08:05 | 11.9 | 84.4 | 1011.2 | 0.2 | NNW | 0.2 | SSW | 0.0 | ||||||||
| 08:10 | 11.6 | 87.9 | 1011.2 | 0.2 | N | 0.2 | N | 0.0 | ||||||||
| 08:15 | 11.5 | 88.9 | 1011.2 | 0.2 | N | 0.2 | N | 0.0 | ||||||||
| 08:20 | 11.9 | 85.8 | 1011.2 | 0.2 | WNW | 0.2 | N | 0.0 | ||||||||
| 08:25 | 12.2 | 84.2 | 1011.2 | 0.2 | W | 0.2 | N | 0.0 | ||||||||
| 08:30 | 11.9 | 85.0 | 1011.2 | 0.2 | W | 0.2 | N | 0.0 | ||||||||
| 08:35 | 11.8 | 85.2 | 1011.2 | 0.1 | W | 0.2 | N | 0.0 | ||||||||
| 08:40 | 11.9 | 84.5 | 1011.2 | 0.1 | W | 0.2 | N | 0.0 | ||||||||
| 08:45 | 11.9 | 84.2 | 1011.2 | 0.1 | W | 0.2 | N | 0.0 | ||||||||
| 08:50 | 11.5 | 85.4 | 1011.2 | 0.2 | W | 0.2 | N | 0.0 | ||||||||
| 08:55 | 11.3 | 85.7 | 1011.2 | 0.2 | W | 0.2 | N | 0.0 | ||||||||
| 09:00 | 11.4 | 86.4 | 1011.2 | 0.2 | W | 0.2 | N | 0.0 | ||||||||
| 09:05 | 11.4 | 86.8 | 1011.2 | 0.2 | W | 0.2 | N | 0.0 | ||||||||
| 09:10 | 11.8 | 86.0 | 1011.2 | 0.1 | W | 0.2 | N | 0.0 | ||||||||
| Máxima | 12.2 | 97.1 | 1012.2 | 0.2 | W | 0.2 | N | 0.0 | ||||||||
| Mínima | 7.5 | 80.7 | 1010.2 | |||||||||||||
| Total | 0.0 | |||||||||||||||